Location: Krakow
(50.0830°N, 19.9170°E)
Time: 18:00:45
(UTC+01:00)

SR - Pass Details

Date: 15 February 2023
Orbit: 582 x 867 km, 66.7° (Epoch: 20 March)

Event Time Altitude Azimuth Distance (km) Brightness Sun altitude
Rises 14:04:44 0° 277° (W) 3,046 ? 21.1°
Reaches altitude 10° 14:08:08 10° 301° (WNW) 2,071 ? 20.8°
Maximum altitude 14:10:43 15° 335° (NNW) 1,743 ? 20.5°
Drops below altitude 10° 14:13:14 10° 10° (N) 1,994 ? 20.3°
Sets 14:16:25 0° 35° (NE) 2,862 ? 20.0°
